Wichita Jabara, KS

3:36 AM CDT on May 30, 2017 (GMT -0500)
Col Jabara

Weather History for KAAO - June, 2013

Change the Weather History Date:

Saturday, June 15, 2013

  Actual Average (KIAB) Record (KIAB)
Temperature  
Mean Temperature 80 °F -  
Max Temperature 90 °F 82 °F 101 °F (2016)
Min Temperature 71 °F 62 °F 53 °F (2001)
Cooling Degree Days 15    
Growing Degree Days 30 (Base 50)    
Moisture  
Dew Point 66 °F    
Average Humidity 67    
Maximum Humidity 93    
Minimum Humidity 51    
Precipitation  
Precipitation 0.00 in - - ()
Sea Level Pressure  
Sea Level Pressure 29.89 in    
Wind  
Wind Speed 10 mph (South)    
Max Wind Speed 21 mph    
Max Gust Speed 29 mph    
Visibility 10 miles    
Events      
Averages and records for this station are not official NWS values.
T = Trace of Precipitation, MM = Missing Value Source: NWS Daily Summary

Daily Weather History Graph

Daily Weather History Graph

Search for Another Location

Airport or City:

Trip Planner

Search our weather history database for the weather conditions in past years. The results will help you decide how hot, cold, wet, or windy it might be!

Date:

Astronomy

Jun. 15, 2013 Rise Set
Actual Time 6:06 AM CDT 8:52 PM CDT
Civil Twilight 5:35 AM CDT 9:23 PM CDT
Nautical Twilight 4:56 AM CDT 10:02 PM CDT
Astronomical Twilight 4:11 AM CDT 10:47 PM CDT
Moon 12:36 PM CDT (6/15) 12:34 AM CDT (6/15)
Length of Visible Light 15h 48m
Length of Day
14h 46m
Waxing Crescent, 40% of the Moon is Illuminated
Jun 15
Waxing Crescent
Jun 16
First Quarter
Jun 23
Full
Jun 29
Last Quarter
Jul 8
New

Hourly Weather History & Observations

Time (CDT) Temp. Heat Index Dew Point Humidity Pressure Visibility Wind Dir Wind Speed Gust Speed Precip Events Conditions
12:54 AM 80.1 °F 82.1 °F 66.0 °F 62% 29.88 in 10.0 mi South 9.2 mph - N/A   Clear
1:54 AM 79.0 °F - 66.0 °F 64% 29.87 in 10.0 mi SSW 8.1 mph - N/A   Clear
2:54 AM 77.0 °F - 66.0 °F 69% 29.88 in 10.0 mi SSW 8.1 mph - N/A   Clear
3:54 AM 77.0 °F - 64.9 °F 66% 29.88 in 10.0 mi SSW 8.1 mph - N/A   Clear
4:54 AM 73.9 °F - 66.0 °F 76% 29.90 in 10.0 mi South 8.1 mph - N/A   Clear
5:54 AM 73.9 °F - 64.9 °F 73% 29.91 in 10.0 mi South 5.8 mph - N/A   Clear
6:54 AM 73.0 °F - 66.0 °F 79% 29.93 in 10.0 mi South 5.8 mph - N/A   Clear
7:54 AM 75.0 °F - 66.9 °F 76% 29.93 in 10.0 mi SSW 4.6 mph - N/A   Clear
8:54 AM 75.9 °F - 66.9 °F 74% 29.94 in 10.0 mi South 4.6 mph - N/A   Clear
9:54 AM 78.1 °F - 66.9 °F 68% 29.95 in 10.0 mi South 10.4 mph - N/A   Clear
10:54 AM 79.0 °F - 66.9 °F 66% 29.94 in 10.0 mi South 9.2 mph - N/A   Clear
11:54 AM 82.0 °F 84.5 °F 66.9 °F 60% 29.94 in 10.0 mi South 9.2 mph - N/A   Clear
12:54 PM 84.0 °F 86.3 °F 66.0 °F 55% 29.91 in 10.0 mi SSW 6.9 mph - N/A   Clear
1:54 PM 87.1 °F 89.9 °F 66.9 °F 51% 29.88 in 10.0 mi SSW 15.0 mph 18.4 mph N/A   Clear
3:54 PM 84.9 °F 87.1 °F 66.0 °F 53% 29.87 in 10.0 mi South 16.1 mph 26.5 mph N/A   Mostly Cloudy
4:54 PM 82.0 °F 83.8 °F 64.9 °F 56% 29.87 in 10.0 mi South 20.7 mph 28.8 mph N/A   Scattered Clouds
5:54 PM 82.9 °F 85.0 °F 66.0 °F 56% 29.85 in 10.0 mi South 17.3 mph 24.2 mph N/A   Clear
6:54 PM 82.0 °F 84.1 °F 66.0 °F 58% 29.83 in 10.0 mi South 16.1 mph - N/A   Clear
7:54 PM 80.1 °F 82.1 °F 66.0 °F 62% 29.84 in 10.0 mi South 17.3 mph 23.0 mph N/A   Clear
8:54 PM 77.0 °F - 66.0 °F 69% 29.85 in 10.0 mi South 13.8 mph - N/A   Clear
9:54 PM 75.0 °F - 68.0 °F 79% 29.88 in 10.0 mi SSE 13.8 mph 20.7 mph N/A   Clear
10:54 PM 73.9 °F - 69.1 °F 85% 29.89 in 10.0 mi SSE 15.0 mph - N/A   Clear
11:54 PM 71.1 °F - 69.1 °F 93% 29.89 in 10.0 mi South 13.8 mph - N/A   Partly Cloudy